Year,Month,Day,Hour,Minute,Value (Times are PST for temperature in C)
2021,08,12,00,00,23.30
2021,08,12,00,01,23.30
2021,08,12,00,02,23.30
2021,08,12,00,03,23.30
2021,08,12,00,04,23.30
2021,08,12,00,05,23.30
2021,08,12,00,06,23.30
2021,08,12,00,07,23.20
2021,08,12,00,08,23.20
2021,08,12,00,09,23.20
2021,08,12,00,10,23.20
2021,08,12,00,11,23.20
2021,08,12,00,12,23.20
2021,08,12,00,13,23.20
2021,08,12,00,14,23.20
2021,08,12,00,15,23.20
2021,08,12,00,16,23.10
2021,08,12,00,17,23.10
2021,08,12,00,18,23.10
2021,08,12,00,19,23.10
2021,08,12,00,20,23.10
2021,08,12,00,21,23.10
2021,08,12,00,22,23.10
2021,08,12,00,23,23.10
2021,08,12,00,24,23.10
2021,08,12,00,25,23.10
2021,08,12,00,26,23.00
2021,08,12,00,27,23.00
2021,08,12,00,28,23.00
2021,08,12,00,29,23.00
2021,08,12,00,30,22.90
2021,08,12,00,31,22.90
2021,08,12,00,32,22.90
2021,08,12,00,33,22.90
2021,08,12,00,34,22.90
2021,08,12,00,35,22.90
2021,08,12,00,36,22.80
2021,08,12,00,37,22.80
2021,08,12,00,38,22.80
2021,08,12,00,39,22.70
2021,08,12,00,40,22.70
2021,08,12,00,41,22.70
2021,08,12,00,42,22.70
2021,08,12,00,43,22.60
2021,08,12,00,44,22.60
2021,08,12,00,45,22.60
2021,08,12,00,46,22.50
2021,08,12,00,47,22.50
2021,08,12,00,48,22.40
2021,08,12,00,49,22.40
2021,08,12,00,50,22.40
2021,08,12,00,51,22.40
2021,08,12,00,52,22.30
2021,08,12,00,53,22.30
2021,08,12,00,54,22.30
2021,08,12,00,55,22.20
2021,08,12,00,56,22.10
2021,08,12,00,57,22.10
2021,08,12,00,58,22.00
2021,08,12,00,59,22.00
2021,08,12,01,00,21.90
2021,08,12,01,01,21.90
2021,08,12,01,02,21.80
2021,08,12,01,03,21.80
2021,08,12,01,04,21.80
2021,08,12,01,05,21.70
2021,08,12,01,06,21.70
2021,08,12,01,07,21.70
2021,08,12,01,08,21.60
2021,08,12,01,09,21.60
2021,08,12,01,10,21.60
2021,08,12,01,11,21.50
2021,08,12,01,12,21.50
2021,08,12,01,13,21.40
2021,08,12,01,14,21.40
2021,08,12,01,15,21.30
2021,08,12,01,16,21.30
2021,08,12,01,17,21.20
2021,08,12,01,18,21.20
2021,08,12,01,19,21.10
2021,08,12,01,20,21.10
2021,08,12,01,21,21.00
2021,08,12,01,22,20.90
2021,08,12,01,23,20.80
2021,08,12,01,24,20.80
2021,08,12,01,25,20.70
2021,08,12,01,26,20.60
2021,08,12,01,27,20.50
2021,08,12,01,28,20.40
2021,08,12,01,29,20.40
2021,08,12,01,30,20.30
2021,08,12,01,31,20.30
2021,08,12,01,32,20.20
2021,08,12,01,33,20.10
2021,08,12,01,34,20.10
2021,08,12,01,35,20.00
2021,08,12,01,36,19.90
2021,08,12,01,37,19.90
2021,08,12,01,38,19.80
2021,08,12,01,39,19.80
2021,08,12,01,40,19.80
2021,08,12,01,41,19.70
2021,08,12,01,42,19.70
2021,08,12,01,43,19.60
2021,08,12,01,44,19.60
2021,08,12,01,45,19.60
2021,08,12,01,46,19.60
2021,08,12,01,47,19.50
2021,08,12,01,48,19.50
2021,08,12,01,49,19.40
2021,08,12,01,50,19.40
2021,08,12,01,51,19.40
2021,08,12,01,52,19.40
2021,08,12,01,53,19.30
2021,08,12,01,54,19.30
2021,08,12,01,55,19.30
2021,08,12,01,56,19.30
2021,08,12,01,57,19.20
2021,08,12,01,58,19.20
2021,08,12,01,59,19.20
2021,08,12,02,00,19.20
2021,08,12,02,01,19.10
2021,08,12,02,02,19.10
2021,08,12,02,03,19.10
2021,08,12,02,04,19.00
2021,08,12,02,05,19.00
2021,08,12,02,06,18.90
2021,08,12,02,07,18.90
2021,08,12,02,08,18.90
2021,08,12,02,09,18.90
2021,08,12,02,10,18.80
2021,08,12,02,11,18.80
2021,08,12,02,12,18.80
2021,08,12,02,13,18.80
2021,08,12,02,14,18.80
2021,08,12,02,15,18.70
2021,08,12,02,16,18.70
2021,08,12,02,17,18.70
2021,08,12,02,18,18.70
2021,08,12,02,19,18.70
2021,08,12,02,20,18.60
2021,08,12,02,21,18.60
2021,08,12,02,22,18.60
2021,08,12,02,23,18.60
2021,08,12,02,24,18.60
2021,08,12,02,25,18.60
2021,08,12,02,26,18.50
2021,08,12,02,27,18.50
2021,08,12,02,28,18.50
2021,08,12,02,29,18.50
2021,08,12,02,30,18.40
2021,08,12,02,31,18.40
2021,08,12,02,32,18.40
2021,08,12,02,33,18.30
2021,08,12,02,34,18.30
2021,08,12,02,35,18.30
2021,08,12,02,36,18.30
2021,08,12,02,37,18.20
2021,08,12,02,38,18.20
2021,08,12,02,39,18.20
2021,08,12,02,40,18.20
2021,08,12,02,41,18.10
2021,08,12,02,42,18.10
2021,08,12,02,43,18.10
2021,08,12,02,44,18.10
2021,08,12,02,45,18.10
2021,08,12,02,46,18.10
2021,08,12,02,47,18.10
2021,08,12,02,48,18.00
2021,08,12,02,49,18.00
2021,08,12,02,50,18.00
2021,08,12,02,51,18.00
2021,08,12,02,52,17.90
2021,08,12,02,53,17.90
2021,08,12,02,54,17.90
2021,08,12,02,55,17.90
2021,08,12,02,56,17.90
2021,08,12,02,57,17.80
2021,08,12,02,58,17.80
2021,08,12,02,59,17.80
2021,08,12,03,00,17.80
2021,08,12,03,01,17.80
2021,08,12,03,02,17.80
2021,08,12,03,03,17.70
2021,08,12,03,04,17.70
2021,08,12,03,05,17.70
2021,08,12,03,06,17.70
2021,08,12,03,07,17.60
2021,08,12,03,08,17.60
2021,08,12,03,09,17.60
2021,08,12,03,10,17.60
2021,08,12,03,11,17.60
2021,08,12,03,12,17.50
2021,08,12,03,13,17.50
2021,08,12,03,14,17.50
2021,08,12,03,15,17.50
2021,08,12,03,16,17.40
2021,08,12,03,17,17.40
2021,08,12,03,18,17.40
2021,08,12,03,19,17.40
2021,08,12,03,20,17.30
2021,08,12,03,21,17.30
2021,08,12,03,22,17.30
2021,08,12,03,23,17.30
2021,08,12,03,24,17.30
2021,08,12,03,25,17.20
2021,08,12,03,26,17.20
2021,08,12,03,27,17.20
2021,08,12,03,28,17.20
2021,08,12,03,29,17.20
2021,08,12,03,30,17.10
2021,08,12,03,31,17.10
2021,08,12,03,32,17.10
2021,08,12,03,33,17.10
2021,08,12,03,34,17.10
2021,08,12,03,35,17.00
2021,08,12,03,36,17.00
2021,08,12,03,37,17.00
2021,08,12,03,38,17.00
2021,08,12,03,39,16.90
2021,08,12,03,40,16.90
2021,08,12,03,41,16.90
2021,08,12,03,42,16.90
2021,08,12,03,43,16.80
2021,08,12,03,44,16.80
2021,08,12,03,45,16.80
2021,08,12,03,46,16.80
2021,08,12,03,47,16.80
2021,08,12,03,48,16.70
2021,08,12,03,49,16.70
2021,08,12,03,50,16.70
2021,08,12,03,51,16.70
2021,08,12,03,52,16.70
2021,08,12,03,53,16.70
2021,08,12,03,54,16.70
2021,08,12,03,55,16.60
2021,08,12,03,56,16.60
2021,08,12,03,57,16.60
2021,08,12,03,58,16.60
2021,08,12,03,59,16.60
2021,08,12,04,00,16.60
2021,08,12,04,01,16.50
2021,08,12,04,02,16.50
2021,08,12,04,03,16.50
2021,08,12,04,04,16.50
2021,08,12,04,05,16.40
2021,08,12,04,06,16.40
2021,08,12,04,07,16.40
2021,08,12,04,08,16.40
2021,08,12,04,09,16.40
2021,08,12,04,10,16.40
2021,08,12,04,11,16.40
2021,08,12,04,12,16.30
2021,08,12,04,13,16.30
2021,08,12,04,14,16.30
2021,08,12,04,15,16.30
2021,08,12,04,16,16.30
2021,08,12,04,17,16.30
2021,08,12,04,18,16.30
2021,08,12,04,19,16.30
2021,08,12,04,20,16.20
2021,08,12,04,21,16.20
2021,08,12,04,22,16.20
2021,08,12,04,23,16.20
2021,08,12,04,24,16.20
2021,08,12,04,25,16.20
2021,08,12,04,26,16.10
2021,08,12,04,27,16.10
2021,08,12,04,28,16.10
2021,08,12,04,29,16.10
2021,08,12,04,30,16.10
2021,08,12,04,31,16.00
2021,08,12,04,32,16.00
2021,08,12,04,33,16.00
2021,08,12,04,34,16.00
2021,08,12,04,35,16.00
2021,08,12,04,36,16.00
2021,08,12,04,37,15.90
2021,08,12,04,38,15.90
2021,08,12,04,39,15.90
2021,08,12,04,40,15.90
2021,08,12,04,41,15.90
2021,08,12,04,42,15.90
2021,08,12,04,43,15.80
2021,08,12,04,44,15.80
2021,08,12,04,45,15.80
2021,08,12,04,46,15.80
2021,08,12,04,47,15.80
2021,08,12,04,48,15.80
2021,08,12,04,49,15.70
2021,08,12,04,50,15.70
2021,08,12,04,51,15.70
2021,08,12,04,52,15.70
2021,08,12,04,53,15.70
2021,08,12,04,54,15.60
2021,08,12,04,55,15.60
2021,08,12,04,56,15.60
2021,08,12,04,57,15.60
2021,08,12,04,58,15.60
2021,08,12,04,59,15.50
2021,08,12,05,00,15.50
2021,08,12,05,01,15.50
2021,08,12,05,02,15.50
2021,08,12,05,03,15.40
2021,08,12,05,04,15.40
2021,08,12,05,05,15.40
2021,08,12,05,06,15.40
2021,08,12,05,07,15.40
2021,08,12,05,08,15.40
2021,08,12,05,09,15.30
2021,08,12,05,10,15.30
2021,08,12,05,11,15.30
2021,08,12,05,12,15.30
2021,08,12,05,13,15.30
2021,08,12,05,14,15.30
2021,08,12,05,15,15.20
2021,08,12,05,16,15.20
2021,08,12,05,17,15.20
2021,08,12,05,18,15.20
2021,08,12,05,19,15.20
2021,08,12,05,20,15.20
2021,08,12,05,21,15.20
2021,08,12,05,22,15.20
2021,08,12,05,23,15.20
2021,08,12,05,24,15.10
2021,08,12,05,25,15.10
2021,08,12,05,26,15.10
2021,08,12,05,27,15.10
2021,08,12,05,28,15.10
2021,08,12,05,29,15.10
2021,08,12,05,30,15.10
2021,08,12,05,31,15.10
2021,08,12,05,32,15.00
2021,08,12,05,33,15.00
2021,08,12,05,34,15.00
2021,08,12,05,35,15.00
2021,08,12,05,36,15.00
2021,08,12,05,37,15.00
2021,08,12,05,38,14.90
2021,08,12,05,39,14.90
2021,08,12,05,40,14.90
2021,08,12,05,41,14.90
2021,08,12,05,42,14.90
2021,08,12,05,43,14.80
2021,08,12,05,44,14.80
2021,08,12,05,45,14.80
2021,08,12,05,46,14.80
2021,08,12,05,47,14.80
2021,08,12,05,48,14.80
2021,08,12,05,49,14.80
2021,08,12,05,50,14.80
2021,08,12,05,51,14.80
2021,08,12,05,52,14.80
2021,08,12,05,53,14.80
2021,08,12,05,54,14.80
2021,08,12,05,55,14.70
2021,08,12,05,56,14.70
2021,08,12,05,57,14.70
2021,08,12,05,58,14.70
2021,08,12,05,59,14.70
2021,08,12,06,00,14.70
2021,08,12,06,01,14.70
2021,08,12,06,02,14.70
2021,08,12,06,03,14.70
2021,08,12,06,04,14.70
2021,08,12,06,05,14.70
2021,08,12,06,06,14.70
2021,08,12,06,07,14.70
2021,08,12,06,08,14.60
2021,08,12,06,09,14.60
2021,08,12,06,10,14.60
2021,08,12,06,11,14.60
2021,08,12,06,12,14.60
2021,08,12,06,13,14.60
2021,08,12,06,14,14.60
2021,08,12,06,15,14.60
2021,08,12,06,16,14.60
2021,08,12,06,17,14.60
2021,08,12,06,18,14.60
2021,08,12,06,19,14.60
2021,08,12,06,20,14.60
2021,08,12,06,21,14.60
2021,08,12,06,22,14.60
2021,08,12,06,23,14.60
2021,08,12,06,24,14.60
2021,08,12,06,25,14.60
2021,08,12,06,26,14.70
2021,08,12,06,27,14.70
2021,08,12,06,28,14.70
2021,08,12,06,29,14.70
2021,08,12,06,30,14.70
2021,08,12,06,31,14.70
2021,08,12,06,32,14.70
2021,08,12,06,33,14.70
2021,08,12,06,34,14.60
2021,08,12,06,35,14.60
2021,08,12,06,36,14.60
2021,08,12,06,37,14.60
2021,08,12,06,38,14.60
2021,08,12,06,39,14.60
2021,08,12,06,40,14.60
2021,08,12,06,41,14.60
2021,08,12,06,42,14.60
2021,08,12,06,43,14.60
2021,08,12,06,44,14.60
2021,08,12,06,45,14.60
2021,08,12,06,46,14.60
2021,08,12,06,47,14.60
2021,08,12,06,48,14.60
2021,08,12,06,49,14.60
2021,08,12,06,50,14.60
2021,08,12,06,51,14.60
2021,08,12,06,52,14.60
2021,08,12,06,53,14.60
2021,08,12,06,54,14.60
2021,08,12,06,55,14.60
2021,08,12,06,56,14.60
2021,08,12,06,57,14.60
2021,08,12,06,58,14.60
2021,08,12,06,59,14.60
2021,08,12,07,00,14.60
2021,08,12,07,01,14.60
2021,08,12,07,02,14.60
2021,08,12,07,03,14.60
2021,08,12,07,04,14.60
2021,08,12,07,05,14.60
2021,08,12,07,06,14.60
2021,08,12,07,07,14.60
2021,08,12,07,08,14.60
2021,08,12,07,09,14.60
2021,08,12,07,10,14.60
2021,08,12,07,11,14.60
2021,08,12,07,12,14.60
2021,08,12,07,13,14.60
2021,08,12,07,14,14.60
2021,08,12,07,15,14.60
2021,08,12,07,16,14.60
2021,08,12,07,17,14.60
2021,08,12,07,18,14.60
2021,08,12,07,19,14.60
2021,08,12,07,20,14.60
2021,08,12,07,21,14.60
2021,08,12,07,22,14.60
2021,08,12,07,23,14.60
2021,08,12,07,24,14.60
2021,08,12,07,25,14.60
2021,08,12,07,26,14.60
2021,08,12,07,27,14.60
2021,08,12,07,28,14.60
2021,08,12,07,29,14.60
2021,08,12,07,30,14.60
2021,08,12,07,31,14.60
2021,08,12,07,32,14.60
2021,08,12,07,33,14.60
2021,08,12,07,34,14.60
2021,08,12,07,35,14.60
2021,08,12,07,36,14.60
2021,08,12,07,37,14.60
2021,08,12,07,38,14.60
2021,08,12,07,39,14.60
2021,08,12,07,40,14.70
2021,08,12,07,41,14.70
2021,08,12,07,42,14.70
2021,08,12,07,43,14.70
2021,08,12,07,44,14.80
2021,08,12,07,45,14.80
2021,08,12,07,46,14.90
2021,08,12,07,47,15.00
2021,08,12,07,48,15.00
2021,08,12,07,49,15.10
2021,08,12,07,50,15.20
2021,08,12,07,51,15.30
2021,08,12,07,52,15.30
2021,08,12,07,53,15.40
2021,08,12,07,54,15.50
2021,08,12,07,55,15.60
2021,08,12,07,56,15.60
2021,08,12,07,57,15.60
2021,08,12,07,58,15.70
2021,08,12,07,59,15.70
2021,08,12,08,00,15.80
2021,08,12,08,01,15.90
2021,08,12,08,02,15.90
2021,08,12,08,03,16.00
2021,08,12,08,04,16.20
2021,08,12,08,05,16.30
2021,08,12,08,06,16.40
2021,08,12,08,07,16.50
2021,08,12,08,08,16.60
2021,08,12,08,09,16.70
2021,08,12,08,10,16.80
2021,08,12,08,11,16.90
2021,08,12,08,12,17.00
2021,08,12,08,13,17.00
2021,08,12,08,14,17.10
2021,08,12,08,15,17.20
2021,08,12,08,16,17.20
2021,08,12,08,17,17.30
2021,08,12,08,18,17.30
2021,08,12,08,19,17.40
2021,08,12,08,20,17.40
2021,08,12,08,21,17.50
2021,08,12,08,22,17.50
2021,08,12,08,23,17.50
2021,08,12,08,24,17.60
2021,08,12,08,25,17.60
2021,08,12,08,26,17.70
2021,08,12,08,27,17.70
2021,08,12,08,28,17.80
2021,08,12,08,29,17.80
2021,08,12,08,30,17.90
2021,08,12,08,31,17.90
2021,08,12,08,32,18.00
2021,08,12,08,33,18.10
2021,08,12,08,34,18.20
2021,08,12,08,35,18.30
2021,08,12,08,36,18.30
2021,08,12,08,37,18.40
2021,08,12,08,38,18.50
2021,08,12,08,39,18.50
2021,08,12,08,40,18.60
2021,08,12,08,41,18.60
2021,08,12,08,42,18.50
2021,08,12,08,43,18.50
2021,08,12,08,44,18.60
2021,08,12,08,45,18.60
2021,08,12,08,46,18.60
2021,08,12,08,47,18.60
2021,08,12,08,48,18.60
2021,08,12,08,49,18.70
2021,08,12,08,50,18.80
2021,08,12,08,51,18.80
2021,08,12,08,52,18.80
2021,08,12,08,53,18.80
2021,08,12,08,54,18.90
2021,08,12,08,55,18.90
2021,08,12,08,56,19.00
2021,08,12,08,57,19.10
2021,08,12,08,58,19.10
2021,08,12,08,59,19.20
2021,08,12,09,00,19.30
2021,08,12,09,01,19.40
2021,08,12,09,02,19.40
2021,08,12,09,03,19.40
2021,08,12,09,04,19.50
2021,08,12,09,05,19.50
2021,08,12,09,06,19.60
2021,08,12,09,07,19.60
2021,08,12,09,08,19.60
2021,08,12,09,09,19.70
2021,08,12,09,10,19.70
2021,08,12,09,11,19.80
2021,08,12,09,12,19.80
2021,08,12,09,13,19.90
2021,08,12,09,14,20.00
2021,08,12,09,15,20.00
2021,08,12,09,16,20.10
2021,08,12,09,17,20.10
2021,08,12,09,18,20.20
2021,08,12,09,19,20.20
2021,08,12,09,20,20.20
2021,08,12,09,21,20.30
2021,08,12,09,22,20.30
2021,08,12,09,23,20.30
2021,08,12,09,24,20.30
2021,08,12,09,25,20.40
2021,08,12,09,26,20.60
2021,08,12,09,27,20.70
2021,08,12,09,28,20.80
2021,08,12,09,29,20.90
2021,08,12,09,30,21.10
2021,08,12,09,31,21.10
2021,08,12,09,32,21.20
2021,08,12,09,33,21.20
2021,08,12,09,34,21.20
2021,08,12,09,35,21.20
2021,08,12,09,36,21.20
2021,08,12,09,37,21.20
2021,08,12,09,38,21.20
2021,08,12,09,39,21.20
2021,08,12,09,40,21.20
2021,08,12,09,41,21.20
2021,08,12,09,42,21.30
2021,08,12,09,43,21.30
2021,08,12,09,44,21.30
2021,08,12,09,45,21.30
2021,08,12,09,46,21.30
2021,08,12,09,47,21.30
2021,08,12,09,48,21.30
2021,08,12,09,49,21.30
2021,08,12,09,50,21.30
2021,08,12,09,51,21.30
2021,08,12,09,52,21.30
2021,08,12,09,53,21.40
2021,08,12,09,54,21.40
2021,08,12,09,55,21.40
2021,08,12,09,56,21.50
2021,08,12,09,57,21.50
2021,08,12,09,58,21.60
2021,08,12,09,59,21.60
2021,08,12,10,00,21.70
2021,08,12,10,01,21.90
2021,08,12,10,02,22.00
2021,08,12,10,03,22.20
2021,08,12,10,04,22.30
2021,08,12,10,05,22.50
2021,08,12,10,06,22.60
2021,08,12,10,07,22.80
2021,08,12,10,08,22.80
2021,08,12,10,09,22.90
2021,08,12,10,10,23.00
2021,08,12,10,11,23.10
2021,08,12,10,12,23.20
2021,08,12,10,13,23.30
2021,08,12,10,14,23.40
2021,08,12,10,15,23.50
2021,08,12,10,16,23.60
2021,08,12,10,17,23.70
2021,08,12,10,18,23.80
2021,08,12,10,19,23.80
2021,08,12,10,20,23.90
2021,08,12,10,21,23.90
2021,08,12,10,22,23.90
2021,08,12,10,23,23.90
2021,08,12,10,24,23.90
2021,08,12,10,25,23.90
2021,08,12,10,26,24.00
2021,08,12,10,27,24.10
2021,08,12,10,28,24.20
2021,08,12,10,29,24.20
2021,08,12,10,30,24.30
2021,08,12,10,31,24.30
2021,08,12,10,32,24.30
2021,08,12,10,33,24.40
2021,08,12,10,34,24.40
2021,08,12,10,35,24.50
2021,08,12,10,36,24.50
2021,08,12,10,37,24.60
2021,08,12,10,38,24.60
2021,08,12,10,39,24.60
2021,08,12,10,40,24.60
2021,08,12,10,41,24.60
2021,08,12,10,42,24.70
2021,08,12,10,43,24.70
2021,08,12,10,44,24.70
2021,08,12,10,45,24.80
2021,08,12,10,46,24.80
2021,08,12,10,47,24.80
2021,08,12,10,48,24.90
2021,08,12,10,49,24.90
2021,08,12,10,50,25.00
2021,08,12,10,51,25.10
2021,08,12,10,52,25.20
2021,08,12,10,53,25.30
2021,08,12,10,54,25.40
2021,08,12,10,55,25.50
2021,08,12,10,56,25.50
2021,08,12,10,57,25.60
2021,08,12,10,58,25.60
2021,08,12,10,59,25.70
2021,08,12,11,00,25.70
2021,08,12,11,01,25.80
2021,08,12,11,02,25.80
2021,08,12,11,03,25.90
2021,08,12,11,04,25.90
2021,08,12,11,05,26.00
2021,08,12,11,06,26.10
2021,08,12,11,07,26.20
2021,08,12,11,08,26.30
2021,08,12,11,09,26.40
2021,08,12,11,10,26.60
2021,08,12,11,11,26.70
2021,08,12,11,12,26.80
2021,08,12,11,13,26.90
2021,08,12,11,14,27.00
2021,08,12,11,15,27.10
2021,08,12,11,16,27.20
2021,08,12,11,17,27.20
2021,08,12,11,18,27.30
2021,08,12,11,19,27.30
2021,08,12,11,20,27.40
2021,08,12,11,21,27.40
2021,08,12,11,22,27.50
2021,08,12,11,23,27.60
2021,08,12,11,24,27.60
2021,08,12,11,25,27.70
2021,08,12,11,26,27.80
2021,08,12,11,27,27.90
2021,08,12,11,28,28.00
2021,08,12,11,29,28.10
2021,08,12,11,30,28.10
2021,08,12,11,31,28.30
2021,08,12,11,32,28.30
2021,08,12,11,33,28.40
2021,08,12,11,34,28.40
2021,08,12,11,35,28.40
2021,08,12,11,36,28.50
2021,08,12,11,37,28.50
2021,08,12,11,38,28.50
2021,08,12,11,39,28.50
2021,08,12,11,40,28.50
2021,08,12,11,41,28.50
2021,08,12,11,42,28.50
2021,08,12,11,43,28.50
2021,08,12,11,44,28.50
2021,08,12,11,45,28.60
2021,08,12,11,46,28.60
2021,08,12,11,47,28.70
2021,08,12,11,48,28.70
2021,08,12,11,49,28.80
2021,08,12,11,50,28.80
2021,08,12,11,51,28.90
2021,08,12,11,52,29.00
2021,08,12,11,53,29.10
2021,08,12,11,54,29.10
2021,08,12,11,55,29.20
2021,08,12,11,56,29.20
2021,08,12,11,57,29.20
2021,08,12,11,58,29.30
2021,08,12,11,59,29.30
2021,08,12,12,00,29.40
2021,08,12,12,01,29.60
2021,08,12,12,02,29.70
2021,08,12,12,03,29.80
2021,08,12,12,04,29.90
2021,08,12,12,05,30.00
2021,08,12,12,06,30.00
2021,08,12,12,07,30.10
2021,08,12,12,08,30.20
2021,08,12,12,09,30.20
2021,08,12,12,10,30.30
2021,08,12,12,11,30.30
2021,08,12,12,12,30.30
2021,08,12,12,13,30.30
2021,08,12,12,14,30.40
2021,08,12,12,15,30.40
2021,08,12,12,16,30.50
2021,08,12,12,17,30.60
2021,08,12,12,18,30.60
2021,08,12,12,19,30.70
2021,08,12,12,20,30.70
2021,08,12,12,21,30.80
2021,08,12,12,22,30.80
2021,08,12,12,23,30.80
2021,08,12,12,24,30.90
2021,08,12,12,25,30.90
2021,08,12,12,26,31.00
2021,08,12,12,27,31.10
2021,08,12,12,28,31.20
2021,08,12,12,29,31.20
2021,08,12,12,30,31.30
2021,08,12,12,31,31.40
2021,08,12,12,32,31.50
2021,08,12,12,33,31.60
2021,08,12,12,34,31.60
2021,08,12,12,35,31.70
2021,08,12,12,36,31.80
2021,08,12,12,37,32.00
2021,08,12,12,38,32.20
2021,08,12,12,39,32.40
2021,08,12,12,40,32.60
2021,08,12,12,41,32.70
2021,08,12,12,42,32.80
2021,08,12,12,43,32.90
2021,08,12,12,44,33.10
2021,08,12,12,45,33.30
2021,08,12,12,46,33.40
2021,08,12,12,47,33.60
2021,08,12,12,48,33.70
2021,08,12,12,49,33.70
2021,08,12,12,50,33.70
2021,08,12,12,51,33.60
2021,08,12,12,52,33.40
2021,08,12,12,53,33.40
2021,08,12,12,54,33.30
2021,08,12,12,55,33.30
2021,08,12,12,56,33.30
2021,08,12,12,57,33.30
2021,08,12,12,58,33.40
2021,08,12,12,59,33.40
2021,08,12,13,00,33.50
2021,08,12,13,01,33.60
2021,08,12,13,02,33.70
2021,08,12,13,03,33.80
2021,08,12,13,04,33.90
2021,08,12,13,05,34.00
2021,08,12,13,06,34.00
2021,08,12,13,07,34.10
2021,08,12,13,08,34.20
2021,08,12,13,09,34.20
2021,08,12,13,10,34.30
2021,08,12,13,11,34.40
2021,08,12,13,12,34.40
2021,08,12,13,13,34.40
2021,08,12,13,14,34.50
2021,08,12,13,15,34.50
2021,08,12,13,16,34.60
2021,08,12,13,17,34.60
2021,08,12,13,18,34.70
2021,08,12,13,19,34.70
2021,08,12,13,20,34.80
2021,08,12,13,21,34.80
2021,08,12,13,22,34.90
2021,08,12,13,23,35.00
2021,08,12,13,24,35.10
2021,08,12,13,25,35.20
2021,08,12,13,26,35.40
2021,08,12,13,27,35.50
2021,08,12,13,28,35.60
2021,08,12,13,29,35.60
2021,08,12,13,30,35.60
2021,08,12,13,31,35.60
2021,08,12,13,32,35.70
2021,08,12,13,33,35.70
2021,08,12,13,34,35.70
2021,08,12,13,35,35.80
2021,08,12,13,36,35.80
2021,08,12,13,37,35.90
2021,08,12,13,38,36.00
2021,08,12,13,39,36.00
2021,08,12,13,40,36.10
2021,08,12,13,41,36.10
2021,08,12,13,42,36.20
2021,08,12,13,43,36.20
2021,08,12,13,44,36.30
2021,08,12,13,45,36.30
2021,08,12,13,46,36.40
2021,08,12,13,47,36.40
2021,08,12,13,48,36.50
2021,08,12,13,49,36.60
2021,08,12,13,50,36.60
2021,08,12,13,51,36.70
2021,08,12,13,52,36.80
2021,08,12,13,53,36.90
2021,08,12,13,54,37.00
2021,08,12,13,55,37.00
2021,08,12,13,56,37.00
2021,08,12,13,57,37.00
2021,08,12,13,58,37.10
2021,08,12,13,59,37.10
2021,08,12,14,00,37.10
2021,08,12,14,01,37.10
2021,08,12,14,02,37.10
2021,08,12,14,03,37.10
2021,08,12,14,04,37.10
2021,08,12,14,05,37.10
2021,08,12,14,06,37.10
2021,08,12,15,32,40.60
2021,08,12,15,33,40.70
2021,08,12,15,34,40.70
2021,08,12,15,35,40.60
2021,08,12,15,36,40.50
2021,08,12,15,37,40.40
2021,08,12,15,38,40.30
2021,08,12,15,39,40.30
2021,08,12,15,40,40.30
2021,08,12,15,41,40.30
2021,08,12,15,42,40.40
2021,08,12,15,43,40.50
2021,08,12,15,44,40.60
2021,08,12,15,45,40.70
2021,08,12,15,46,40.80
2021,08,12,15,47,40.80
2021,08,12,15,48,40.80
2021,08,12,15,49,40.80
2021,08,12,15,50,40.80
2021,08,12,15,51,40.80
2021,08,12,15,52,40.80
2021,08,12,15,53,40.80
2021,08,12,15,54,40.70
2021,08,12,15,55,40.70
2021,08,12,15,56,40.70
2021,08,12,15,57,40.70
2021,08,12,15,58,40.70
2021,08,12,15,59,40.60
2021,08,12,16,00,40.60
2021,08,12,16,01,40.60
2021,08,12,16,02,40.60
2021,08,12,16,03,40.70
2021,08,12,16,04,40.60
2021,08,12,16,05,40.50
2021,08,12,16,06,40.40
2021,08,12,16,07,40.20
2021,08,12,16,08,40.00
2021,08,12,16,09,39.90
2021,08,12,16,10,39.80
2021,08,12,16,11,39.70
2021,08,12,16,12,39.70
2021,08,12,16,13,39.60
2021,08,12,16,14,39.60
2021,08,12,16,15,39.60
2021,08,12,16,16,39.60
2021,08,12,16,17,39.60
2021,08,12,16,18,39.60
2021,08,12,16,19,39.50
2021,08,12,16,20,39.50
2021,08,12,16,21,39.40
2021,08,12,16,22,39.40
2021,08,12,16,23,39.30
2021,08,12,16,24,39.30
2021,08,12,16,25,39.20
2021,08,12,16,26,39.10
2021,08,12,16,27,39.00
2021,08,12,16,28,38.90
2021,08,12,16,29,38.90
2021,08,12,16,30,38.80
2021,08,12,16,31,38.80
2021,08,12,16,32,38.70
2021,08,12,16,33,38.70
2021,08,12,16,34,38.60
2021,08,12,16,35,38.60
2021,08,12,16,36,38.60
2021,08,12,16,37,38.60
2021,08,12,16,38,38.60
2021,08,12,16,39,38.60
2021,08,12,16,40,38.60
2021,08,12,16,41,38.60
2021,08,12,16,42,38.50
2021,08,12,16,43,38.50
2021,08,12,16,44,38.50
2021,08,12,16,45,38.50
2021,08,12,16,46,38.40
2021,08,12,16,47,38.40
2021,08,12,16,48,38.40
2021,08,12,16,49,38.30
2021,08,12,16,50,38.30
2021,08,12,16,51,38.30
2021,08,12,16,52,38.30
2021,08,12,16,53,38.30
2021,08,12,16,54,38.20
2021,08,12,16,55,38.20
2021,08,12,16,56,38.20
2021,08,12,16,57,38.20
2021,08,12,16,58,38.20
2021,08,12,16,59,38.10
2021,08,12,17,00,38.10
2021,08,12,17,01,38.10
2021,08,12,17,02,38.10
2021,08,12,17,03,38.10
2021,08,12,17,04,38.10
2021,08,12,17,05,38.10
2021,08,12,17,06,38.10
2021,08,12,17,07,38.10
2021,08,12,17,08,38.10
2021,08,12,17,09,38.10
2021,08,12,17,10,38.10
2021,08,12,17,11,38.10
2021,08,12,17,12,38.00
2021,08,12,17,13,38.00
2021,08,12,17,14,37.90
2021,08,12,17,15,37.90
2021,08,12,17,16,37.90
2021,08,12,17,17,37.80
2021,08,12,17,18,37.80
2021,08,12,17,19,37.80
2021,08,12,17,20,37.80
2021,08,12,17,21,37.70
2021,08,12,17,22,37.70
2021,08,12,17,23,37.70
2021,08,12,17,24,37.70
2021,08,12,17,25,37.70
2021,08,12,17,26,37.70
2021,08,12,17,27,37.70
2021,08,12,17,28,37.70
2021,08,12,17,29,37.70
2021,08,12,17,30,37.70
2021,08,12,17,31,37.70
2021,08,12,17,32,37.70
2021,08,12,17,33,37.70
2021,08,12,17,34,37.60
2021,08,12,17,35,37.60
2021,08,12,17,36,37.60
2021,08,12,17,37,37.60
2021,08,12,17,38,37.60
2021,08,12,17,39,37.60
2021,08,12,17,40,37.50
2021,08,12,17,41,37.50
2021,08,12,17,42,37.50
2021,08,12,17,43,37.50
2021,08,12,17,44,37.50
2021,08,12,17,45,37.50
2021,08,12,17,46,37.50
2021,08,12,17,47,37.50
2021,08,12,17,48,37.40
2021,08,12,17,49,37.40
2021,08,12,17,50,37.30
2021,08,12,17,51,37.20
2021,08,12,17,52,37.20
2021,08,12,17,53,37.10
2021,08,12,17,54,37.10
2021,08,12,17,55,37.10
2021,08,12,17,56,37.10
2021,08,12,17,57,37.10
2021,08,12,17,58,37.10
2021,08,12,17,59,37.10
2021,08,12,18,00,37.10
2021,08,12,18,01,37.10
2021,08,12,18,02,37.10
2021,08,12,18,03,37.20
2021,08,12,18,04,37.20
2021,08,12,18,05,37.20
2021,08,12,18,06,37.20
2021,08,12,18,07,37.20
2021,08,12,18,08,37.20
2021,08,12,18,09,37.20
2021,08,12,18,10,37.20
2021,08,12,18,11,37.30
2021,08,12,18,12,37.40
2021,08,12,18,13,37.50
2021,08,12,18,14,37.50
2021,08,12,18,15,37.40
2021,08,12,18,16,37.40
2021,08,12,18,17,37.30
2021,08,12,18,18,37.30
2021,08,12,18,19,37.30
2021,08,12,18,20,37.20
2021,08,12,18,21,37.10
2021,08,12,18,22,37.10
2021,08,12,18,23,37.00
2021,08,12,18,24,36.90
2021,08,12,18,25,36.90
2021,08,12,18,26,36.90
2021,08,12,18,27,36.80
2021,08,12,18,28,36.80
2021,08,12,18,29,36.80
2021,08,12,18,30,36.80
2021,08,12,18,31,36.80
2021,08,12,18,32,36.70
2021,08,12,18,33,36.70
2021,08,12,18,34,36.70
2021,08,12,18,35,36.70
2021,08,12,18,36,36.60
2021,08,12,18,37,36.60
2021,08,12,18,38,36.60
2021,08,12,18,39,36.50
2021,08,12,18,40,36.50
2021,08,12,18,41,36.40
2021,08,12,18,42,36.40
2021,08,12,18,43,36.30
2021,08,12,18,44,36.30